Date,TemperatureHighF,TemperatureAvgF,TemperatureLowF,DewpointHighF,DewpointAvgF,DewpointLowF,HumidityHigh,HumidityAvg,HumidityLow,PressureMaxIn,PressureMinIn,WindSpeedMaxMPH,WindSpeedAvgMPH,GustSpeedMaxMPH,PrecipitationSumIn
2013-1-1,61,48,36,32,21,10,83,40,16,0.00,40.00,12,4,17,0.00
2013-1-2,62,51,45,17,11,3,26,21,10,0.00,40.00,13,7,21,0.00
2013-1-3,64,53,46,15,9,3,24,17,9,0.00,40.00,18,7,28,0.00
2013-1-4,67,53,41,19,10,2,31,19,11,0.00,40.00,8,2,17,0.00
2013-1-5,69,50,36,20,13,5,43,25,10,0.00,40.00,6,2,9,0.00
2013-1-6,67,50,38,37,25,8,56,39,13,0.00,40.00,14,4,22,0.00
2013-1-7,65,53,44,42,28,15,76,44,14,0.00,40.00,16,6,26,0.00
2013-1-8,76,59,42,32,22,9,37,26,11,0.00,40.00,13,4,23,0.00
2013-1-9,76,60,50,35,27,18,49,30,12,0.00,40.00,8,3,16,0.00
2013-1-10,66,55,48,45,33,23,59,44,26,0.00,40.00,29,11,48,0.00
2013-1-11,61,49,37,32,19,7,56,33,13,0.00,40.00,16,5,27,0.00
2013-1-12,57,46,36,28,17,8,61,35,14,0.00,40.00,11,3,16,0.00
2013-1-13,58,41,31,18,8,-4,49,30,9,0.00,40.00,4,1,10,0.00
2013-1-14,51,43,36,4,-4,-11,19,14,8,0.00,40.00,16,11,28,0.00
2013-1-15,55,45,35,10,0,-8,25,16,11,0.00,40.00,20,8,31,0.00
2013-1-16,64,51,39,24,14,6,32,23,14,0.00,40.00,10,6,18,0.00
2013-1-17,71,58,50,22,15,9,30,19,11,0.00,40.00,16,7,24,0.00
2013-1-18,74,62,51,19,14,6,20,15,10,0.00,40.00,14,6,21,0.00
2013-1-19,76,62,53,18,13,7,19,15,9,0.00,40.00,13,6,19,0.00
2013-1-20,75,64,55,22,12,3,24,14,7,0.00,40.00,12,6,18,0.00
2013-1-21,77,59,48,19,6,-4,26,13,5,0.00,40.00,16,5,27,0.00
2013-1-22,81,67,53,19,8,-1,16,10,5,0.00,40.00,8,4,14,0.00
2013-1-23,82,64,50,27,18,7,30,18,8,0.00,40.00,8,2,13,0.00
2013-1-24,74,66,59,47,40,23,63,40,20,0.00,40.00,6,2,13,0.00
2013-1-25,72,63,57,61,51,45,98,68,40,0.00,40.00,11,5,19,0.44
2013-1-26,67,60,57,61,58,55,99,91,75,0.00,40.00,8,4,12,0.74
2013-1-27,71,60,55,59,54,41,100,83,56,0.00,40.00,10,3,18,0.01
2013-1-28,63,54,48,42,35,27,71,50,26,0.00,40.00,17,9,27,0.00
2013-1-29,64,52,39,44,35,26,94,57,24,0.00,40.00,10,3,15,0.00
2013-1-30,72,54,41,44,38,28,95,61,21,0.00,40.00,3,1,8,0.00
2013-1-31,74,60,44,47,37,29,87,48,20,0.00,40.00,9,3,16,0.00
2013-2-1,79,62,48,46,37,24,77,47,14,0.00,40.00,5,2,10,0.00
2013-2-2,79,66,53,45,35,24,65,37,14,0.00,40.00,8,3,13,0.00
2013-2-3,79,68,60,49,39,29,63,38,22,0.00,40.00,10,5,16,0.00
2013-2-4,79,64,52,47,39,28,77,46,16,0.00,40.00,9,2,17,0.00
2013-2-5,82,64,49,46,37,22,83,43,11,0.00,40.00,6,2,8,0.00
2013-2-6,79,65,55,48,40,32,68,45,19,0.00,40.00,5,2,9,0.00
2013-2-7,78,60,47,52,42,26,99,59,17,0.00,40.00,8,2,12,0.00
2013-2-8,66,58,51,48,34,23,71,44,22,0.00,40.00,18,12,35,0.00
2013-2-9,64,53,44,36,30,23,63,44,23,0.00,40.00,14,7,26,0.00
2013-2-10,63,53,37,37,30,22,73,44,23,0.00,40.00,9,4,16,0.00
2013-2-11,62,52,39,36,26,14,79,43,15,0.00,40.00,13,5,23,0.00
2013-2-12,65,49,37,26,12,0,47,27,8,0.00,40.00,11,4,22,0.00
2013-2-13,72,54,39,28,16,4,44,25,11,0.00,40.00,10,3,21,0.00
2013-2-14,77,60,46,35,23,16,52,27,11,0.00,40.00,13,3,24,0.00
2013-2-15,77,67,59,22,17,13,21,15,9,0.00,40.00,16,8,28,0.00
2013-2-16,82,67,55,24,14,6,25,14,6,0.00,40.00,9,4,18,0.00
2013-2-17,81,62,42,38,22,10,48,24,9,0.00,40.00,9,3,16,0.00
2013-2-18,76,58,41,41,31,18,69,41,15,0.00,40.00,4,1,9,0.00
2013-2-19,68,56,43,44,36,29,92,49,27,0.00,40.00,17,7,25,0.00
2013-2-20,62,54,46,44,30,18,81,43,19,0.00,40.00,17,9,33,0.01
2013-2-21,68,53,37,44,32,25,83,48,22,0.00,40.00,8,3,14,0.01
2013-2-22,70,54,38,43,27,9,92,47,10,0.00,40.00,7,2,15,0.00
2013-2-23,73,55,39,36,24,14,65,34,13,0.00,40.00,10,4,16,0.00
2013-2-24,67,57,51,36,6,-3,50,14,6,0.00,40.00,21,11,39,0.00
2013-2-25,72,56,41,18,8,0,28,17,7,0.00,40.00,10,3,16,0.00
2013-2-26,73,54,39,20,11,4,47,22,7,0.00,40.00,15,4,26,0.00
2013-2-27,71,59,50,11,2,-9,17,10,4,0.00,40.00,15,9,26,0.00
2013-2-28,77,62,52,18,3,-7,19,10,5,0.00,40.00,15,6,24,0.00
2013-3-1,84,68,50,28,16,4,30,16,6,0.00,40.00,10,3,17,0.00
2013-3-2,91,68,46,37,25,15,47,23,7,0.00,40.00,3,1,9,0.00
2013-3-3,81,65,48,47,31,22,53,31,14,0.00,40.00,10,2,12,0.00
2013-3-4,82,68,58,42,36,24,48,32,17,0.00,40.00,19,7,32,0.00
2013-3-5,81,66,50,48,39,30,64,41,19,0.00,40.00,6,3,13,0.00
2013-3-6,83,64,51,48,37,16,67,41,8,0.00,40.00,12,5,20,0.00
2013-3-7,77,64,51,43,37,30,69,39,20,0.00,40.00,14,7,21,0.00
2013-3-8,66,57,51,52,39,30,86,55,26,0.00,40.00,16,7,27,0.10
2013-3-9,70,59,46,41,35,30,72,43,23,0.00,40.00,14,7,22,0.06
2013-3-10,78,63,48,43,29,15,66,34,10,0.00,40.00,17,4,28,0.00
2013-3-11,86,66,48,34,24,10,44,25,7,0.00,40.00,6,2,13,0.00
2013-3-12,92,69,50,33,26,11,48,25,6,0.00,40.00,8,2,13,0.00
2013-3-13,96,72,55,34,26,15,34,21,6,0.00,40.00,9,2,17,0.00
2013-3-14,99,80,61,38,29,14,30,18,7,0.00,40.00,8,2,14,0.00
2013-3-15,98,76,57,41,34,25,48,25,9,0.00,40.00,7,2,11,0.00
2013-3-16,95,73,56,44,34,16,53,30,6,0.00,40.00,8,2,15,0.00
2013-3-17,93,70,52,49,38,19,70,37,7,0.00,40.00,7,2,15,0.00
2013-3-18,87,71,58,50,41,33,56,37,15,0.00,40.00,7,4,13,0.00
2013-3-19,92,70,55,48,40,24,64,39,9,0.00,40.00,6,1,13,0.00
2013-3-20,91,75,58,47,37,22,57,31,11,0.00,40.00,13,4,22,0.00
2013-3-21,89,75,64,50,34,23,39,24,12,0.00,40.00,12,4,19,0.00
2013-3-22,88,72,57,44,29,11,51,25,6,0.00,40.00,10,5,19,0.00
2013-3-23,83,68,53,39,12,-8,50,19,3,0.00,40.00,19,5,32,0.00
2013-3-24,86,66,52,15,5,-12,17,10,3,0.00,40.00,8,1,13,0.00
2013-3-25,91,71,50,24,14,2,23,12,4,0.00,40.00,5,2,11,0.00
2013-3-26,90,72,57,47,26,14,38,20,9,0.00,40.00,10,3,14,0.00
2013-3-27,90,75,59,29,21,14,23,14,8,0.00,40.00,7,4,17,0.00
2013-3-28,89,82,73,42,33,25,33,18,11,0.00,40.00,6,3,11,0.00
2013-3-29,89,75,58,50,39,30,66,31,13,0.00,40.00,7,3,11,0.00
2013-3-30,94,81,68,43,30,-100,32,19,9,0.00,40.00,8,3,14,0.00
2013-3-31,88,75,59,43,37,25,44,27,13,0.00,40.00,15,9,24,0.00
2013-4-1,83,71,57,41,34,21,48,29,10,0.00,40.00,19,11,29,0.00
2013-4-2,89,72,57,46,35,25,57,31,10,0.00,40.00,11,6,21,0.00
2013-4-3,95,76,57,41,31,20,44,23,7,0.00,40.00,11,2,19,0.00
2013-4-4,94,79,59,39,32,22,35,20,10,0.00,40.00,10,4,19,0.00
2013-4-5,90,77,66,45,36,26,41,25,11,0.00,40.00,14,9,23,0.00
2013-4-6,91,73,59,49,39,28,49,31,11,0.00,40.00,8,5,21,0.00
2013-4-7,92,75,60,56,43,30,64,37,13,0.00,40.00,9,4,14,0.00
2013-4-8,79,66,57,54,39,31,64,40,18,0.00,40.00,33,14,56,0.00
2013-4-9,80,67,56,37,25,10,43,25,8,0.00,40.00,17,11,30,0.00
2013-4-10,84,72,61,36,17,0,31,14,4,0.00,40.00,21,8,42,0.00
2013-4-11,91,71,49,37,24,13,39,20,6,0.00,40.00,13,5,20,0.00
2013-4-12,92,75,57,41,28,9,30,19,8,0.00,40.00,8,2,14,0.00
2013-4-13,94,72,58,50,40,18,52,35,7,0.00,40.00,13,5,23,0.00
2013-4-14,93,74,59,53,46,30,73,45,13,0.00,40.00,14,5,20,0.00
2013-4-15,85,70,57,52,40,33,57,36,16,0.00,40.00,13,7,24,0.00
2013-4-16,77,65,56,39,31,18,45,30,12,0.00,40.00,17,12,26,0.00
2013-4-17,78,63,54,39,22,-4,45,27,4,0.00,40.00,14,10,26,0.00
2013-4-18,79,65,52,10,5,-3,16,10,4,0.00,40.00,16,7,28,0.00
2013-4-19,89,73,57,19,6,-3,14,8,3,0.00,40.00,8,4,13,0.00
2013-4-20,96,78,51,33,20,6,25,13,4,0.00,40.00,8,3,14,0.00
2013-4-21,97,78,57,31,25,10,29,16,6,0.00,40.00,10,5,18,0.00
2013-4-22,95,81,61,43,31,8,27,17,11,0.00,40.00,12,5,16,0.00
2013-4-23,92,72,57,38,20,-8,43,21,2,0.00,40.00,17,4,30,0.00
2013-4-24,93,79,61,54,32,-5,76,23,5,0.00,40.00,14,8,22,0.00
2013-4-25,90,73,60,47,39,27,46,32,12,0.00,40.00,13,8,22,0.00
2013-4-26,94,76,57,52,43,34,68,36,14,0.00,40.00,6,3,13,0.00
2013-4-27,101,77,60,42,31,-4,47,27,2,0.00,40.00,7,1,20,0.00
2013-4-28,106,88,68,30,20,5,23,10,3,0.00,40.00,10,5,19,0.00
2013-4-29,106,82,68,30,23,9,23,14,3,0.00,40.00,6,3,15,0.00
2013-4-30,101,88,66,37,26,13,25,12,4,0.00,40.00,18,7,27,0.00
2013-5-1,99,77,63,53,41,-11,69,35,2,0.00,40.00,11,3,17,0.00
2013-5-2,92,82,74,13,-3,-10,8,4,2,0.00,40.00,20,11,33,0.00
2013-5-3,97,86,66,23,10,-6,11,6,4,0.00,40.00,20,7,28,0.00
2013-5-4,99,84,60,45,21,10,21,11,4,0.00,40.00,13,5,33,0.00
2013-5-5,89,75,63,43,32,18,38,22,11,0.00,40.00,16,8,30,0.00
2013-5-6,86,74,62,52,44,37,58,37,20,0.00,40.00,19,9,32,0.00
2013-5-7,80,71,63,47,42,34,55,36,20,0.00,40.00,16,10,25,0.00
2013-5-8,87,71,59,46,38,28,51,34,13,0.00,40.00,11,6,20,0.00
2013-5-9,89,74,59,47,40,28,55,33,12,0.00,40.00,9,6,17,0.00
2013-5-10,96,78,61,52,38,-100,62,31,9,0.00,40.00,9,3,24,0.00
2013-5-11,102,86,68,40,31,-100,35,17,7,0.00,40.00,8,2,22,0.00
2013-5-12,106,92,69,32,28,16,21,11,6,0.00,40.00,10,4,15,0.00
2013-5-13,110,96,71,36,28,20,24,10,5,0.00,40.00,10,4,25,0.00
2013-5-14,106,90,75,50,38,25,39,19,6,0.00,40.00,14,6,27,0.00
2013-5-15,102,85,68,47,29,14,33,15,6,0.00,40.00,15,4,23,0.00
2013-5-16,104,75,66,50,20,-100,49,22,6,0.00,40.00,15,5,25,0.00
2013-5-17,97,80,64,45,26,-100,32,18,9,0.00,40.00,16,6,28,0.00
2013-5-18,95,79,62,47,38,27,50,26,10,0.00,40.00,12,5,21,0.00
2013-5-19,99,83,66,51,39,27,45,25,8,0.00,40.00,7,3,14,0.00
2013-5-20,99,81,66,51,35,15,45,26,5,0.00,40.00,20,5,31,0.00
2013-5-21,106,90,67,34,21,6,13,9,3,0.00,40.00,8,3,16,0.00
2013-5-22,105,83,70,38,29,13,25,16,5,0.00,40.00,15,3,25,0.00
2013-5-23,97,79,65,24,16,-8,20,10,2,0.00,40.00,15,7,21,0.00
2013-5-24,97,76,62,52,28,4,32,21,3,0.00,40.00,7,2,17,0.00
2013-5-25,100,82,63,60,33,-2,73,25,3,0.00,40.00,10,3,16,0.00
2013-5-26,98,77,64,40,28,6,38,20,4,0.00,40.00,11,4,19,0.00
2013-5-27,96,83,71,44,34,25,27,18,8,0.00,40.00,11,6,20,0.00
2013-5-28,100,83,66,48,41,32,36,24,11,0.00,40.00,16,6,27,0.00
2013-5-29,97,84,68,56,48,38,48,30,14,0.00,40.00,13,5,21,0.00
2013-5-30,99,84,68,59,54,43,65,39,17,0.00,40.00,12,6,20,0.00
2013-5-31,101,86,71,63,54,46,66,39,16,0.00,40.00,8,6,13,0.00
2013-6-1,110,91,70,57,46,24,54,28,5,0.00,40.00,8,4,17,0.00
2013-6-2,108,88,77,50,41,25,32,21,6,0.00,40.00,16,4,24,0.00
2013-6-3,104,86,72,50,43,34,43,25,9,0.00,40.00,12,6,19,0.00
2013-6-4,106,84,73,60,44,23,47,28,6,0.00,40.00,9,4,17,0.00
2013-6-5,107,91,70,52,33,18,41,18,5,0.00,40.00,9,3,13,0.00
2013-6-6,111,93,73,46,33,17,31,15,4,0.00,40.00,12,4,24,0.00
2013-6-7,113,94,74,54,35,21,26,15,5,0.00,40.00,10,4,18,0.00
2013-6-8,104,90,75,61,46,34,49,25,10,0.00,40.00,13,7,25,0.00
2013-6-9,104,87,70,58,45,18,56,30,5,0.00,40.00,13,7,22,0.00
2013-6-10,110,93,71,47,36,23,34,16,5,0.00,40.00,12,6,18,0.00
2013-6-11,109,94,76,39,30,18,25,11,5,0.00,40.00,8,3,18,0.00
2013-6-12,107,92,77,61,48,36,57,25,12,0.00,40.00,11,5,18,0.00
2013-6-13,103,84,76,70,43,30,51,25,8,0.00,40.00,6,3,14,0.00
2013-6-14,106,91,76,53,45,39,43,23,11,0.00,40.00,12,5,18,0.00
2013-6-15,107,83,74,49,43,19,35,27,5,0.00,40.00,8,3,13,0.00
2013-6-16,108,92,74,28,-22,-100,18,8,1,0.00,40.00,7,2,14,0.00
2013-6-17,108,91,70,48,33,17,23,15,4,0.00,40.00,7,3,14,0.00
2013-6-18,106,90,73,43,29,15,29,14,4,0.00,40.00,12,4,15,0.00
2013-6-19,106,87,71,34,25,-14,22,13,1,0.00,40.00,10,4,16,0.00
2013-6-20,102,88,69,42,29,23,23,13,7,0.00,40.00,3,2,12,0.00
2013-6-22,105,92,75,62,40,25,44,21,6,0.00,40.00,7,3,12,0.00
2013-6-23,105,86,71,62,48,33,47,31,9,0.00,40.00,7,4,15,0.00
2013-6-24,103,87,74,50,41,27,31,22,7,0.00,40.00,13,6,23,0.00
2013-6-25,103,86,72,59,51,42,49,32,13,0.00,40.00,10,5,17,0.00
2013-6-26,107,94,80,62,49,39,54,25,11,0.00,40.00,12,6,19,0.00
2013-6-27,106,91,79,64,57,46,40,33,17,0.00,40.00,9,6,14,0.00
2013-6-28,109,88,81,69,60,38,52,42,9,0.00,40.00,14,1,19,0.00
2013-6-29,117,101,90,56,53,48,29,21,13,0.00,40.00,15,7,24,0.00
2013-6-30,113,96,85,66,58,55,42,30,20,0.00,40.00,14,7,21,0.00
2013-7-1,114,96,86,71,64,58,55,37,17,0.00,40.00,14,6,21,0.00
2013-7-2,111,93,85,68,60,47,56,35,12,0.00,40.00,20,8,35,0.00
2013-7-3,110,92,82,66,58,44,46,34,11,0.00,40.00,10,4,20,0.00
2013-7-4,107,94,83,68,60,54,59,35,18,0.00,40.00,18,8,32,0.00
2013-7-5,103,90,82,70,59,45,58,39,17,0.00,40.00,10,6,17,0.00
2013-7-6,110,91,82,57,52,42,43,29,11,0.00,40.00,9,6,16,0.00
2013-7-7,113,94,78,65,54,43,52,34,10,0.00,40.00,6,2,13,0.00
2013-7-8,107,93,86,73,55,46,47,30,14,0.00,40.00,12,3,20,0.00
2013-7-9,102,90,84,73,69,62,68,51,33,0.00,40.00,16,10,27,0.00
2013-7-10,97,87,83,73,62,-100,67,48,29,0.00,40.00,14,10,23,0.00
2013-7-11,102,90,83,71,66,59,63,47,26,0.00,40.00,15,7,25,0.00
2013-7-12,105,93,80,71,62,53,64,40,18,0.00,40.00,11,4,19,0.00
2013-7-13,109,94,82,63,58,49,46,32,14,0.00,40.00,11,5,19,0.00
2013-7-14,110,97,84,65,60,53,47,32,16,0.00,40.00,11,5,19,0.00
2013-7-15,112,95,86,66,60,50,45,34,13,0.00,40.00,11,4,23,0.00
2013-7-17,110,102,97,48,45,41,17,15,10,0.00,40.00,6,4,14,0.00
2013-7-18,115,98,85,70,50,39,34,22,8,0.00,40.00,14,6,20,0.00
2013-7-19,98,91,84,77,70,60,74,53,32,0.00,40.00,13,10,23,0.00
2013-7-20,101,87,79,76,67,-100,87,56,28,0.00,40.00,17,7,22,0.02
2013-7-21,91,84,75,78,72,66,95,70,50,0.00,40.00,12,6,19,0.30
2013-7-22,98,88,77,77,70,59,94,62,28,0.00,40.00,11,4,20,0.13
2013-7-23,106,91,80,75,68,59,78,51,24,0.00,40.00,11,4,18,0.00
2013-7-24,108,96,85,70,63,58,56,36,21,0.00,40.00,10,4,19,0.00
2013-7-25,102,90,82,72,65,60,64,45,27,0.00,40.00,8,4,15,0.05
2013-7-26,107,95,85,67,62,52,54,36,17,0.00,40.00,9,5,17,0.02
2013-7-27,111,98,87,61,58,54,40,28,17,0.00,40.00,12,5,19,0.00
2013-7-28,112,94,83,64,49,33,44,26,8,0.00,40.00,15,5,25,0.00
2013-7-29,109,96,80,56,45,35,26,18,13,0.00,40.00,12,6,20,0.00
2013-7-30,106,91,83,62,57,47,49,33,14,0.00,40.00,12,7,21,0.00
2013-7-31,109,93,80,57,51,38,41,27,12,0.00,40.00,8,2,17,0.00
2013-8-1,108,99,88,49,46,39,20,17,12,0.00,40.00,14,7,20,0.00
2013-8-2,107,90,80,64,53,38,52,32,10,0.00,40.00,9,4,14,0.00
2013-8-3,108,91,75,58,47,29,56,26,7,0.00,40.00,8,4,18,0.00
2013-8-4,110,94,78,58,48,32,46,25,7,0.00,40.00,8,4,15,0.00
2013-8-5,99,89,79,69,56,45,53,33,24,0.00,40.00,13,5,22,0.00
2013-8-6,105,90,78,67,61,53,69,41,20,0.00,40.00,14,6,34,0.00
2013-8-7,98,85,77,67,57,32,67,45,10,0.00,40.00,6,2,12,0.00
2013-8-8,108,88,77,41,36,20,28,18,5,0.00,40.00,8,3,17,0.00
2013-8-9,106,84,77,51,38,21,41,22,5,0.00,40.00,8,4,22,0.00
2013-8-10,106,98,84,57,35,25,31,13,7,0.00,40.00,8,5,17,0.00
2013-8-11,105,85,72,50,41,25,42,26,6,0.00,40.00,4,1,13,0.00
2013-8-12,108,87,73,60,49,29,57,32,7,0.00,40.00,8,2,13,0.00
2013-8-13,107,89,77,54,44,-100,33,23,13,0.00,40.00,12,4,17,0.00
2013-8-14,110,89,76,73,54,-100,78,39,11,0.00,40.00,8,4,16,0.00
2013-8-15,112,87,85,67,42,-100,55,29,13,0.00,40.00,8,5,15,0.00
2013-8-16,114,95,84,66,53,-100,48,29,13,0.00,40.00,9,4,16,0.00
2013-8-17,114,96,86,66,51,-100,40,25,12,0.00,40.00,8,4,17,0.00
2013-8-18,112,100,91,61,56,51,35,24,14,0.00,40.00,13,7,29,0.00
2013-8-19,108,89,88,61,45,-100,38,27,15,0.00,40.00,7,4,14,0.00
2013-8-20,114,95,83,69,53,-100,57,30,11,0.00,40.00,7,4,17,0.00
2013-8-21,112,98,86,67,58,50,41,28,14,0.00,40.00,14,5,21,0.00
2013-8-22,106,93,85,75,68,58,68,47,25,0.00,40.00,17,7,44,0.00
2013-8-23,107,95,83,74,64,56,57,38,21,0.00,40.00,12,6,24,0.00
2013-8-24,100,86,77,78,68,-100,77,59,35,0.00,40.00,19,10,31,0.01
2013-8-25,89,83,78,75,70,66,84,66,49,0.00,40.00,10,5,22,0.01
2013-8-26,94,83,73,75,71,66,91,68,42,0.00,40.00,12,8,21,0.20
2013-8-27,99,85,78,73,67,60,77,57,31,0.00,40.00,8,3,14,0.13
2013-8-28,110,98,86,74,64,58,62,37,19,0.00,40.00,18,10,31,0.00
2013-8-29,95,85,81,78,73,69,86,68,43,0.00,40.00,11,6,31,0.20
2013-8-30,99,89,81,77,71,64,82,58,35,0.00,40.00,5,2,10,0.03
2013-8-31,106,92,84,74,64,-100,65,43,25,0.00,40.00,13,3,39,0.00
2013-9-1,109,96,83,71,62,53,60,37,16,0.00,40.00,6,3,20,0.00
2013-9-2,109,95,86,66,62,53,52,35,16,0.00,40.00,15,4,22,0.00
2013-9-3,108,92,85,67,62,52,52,39,16,0.00,40.00,7,3,14,0.00
2013-9-4,103,90,82,73,68,54,70,50,23,0.00,40.00,15,6,25,0.17
2013-9-5,112,92,80,73,64,52,72,47,14,0.00,40.00,10,4,23,0.17
2013-9-6,110,93,84,68,61,50,52,36,14,0.00,40.00,18,5,39,0.00
2013-9-7,97,86,81,71,62,-100,68,47,27,0.00,40.00,12,5,39,0.00
2013-9-8,106,90,77,71,64,55,78,47,20,0.00,40.00,9,4,27,0.00
2013-9-9,102,86,74,71,57,-100,91,50,22,0.00,40.00,19,-42,33,0.02
2013-9-10,98,85,73,72,67,56,91,60,26,0.00,40.00,9,1,15,0.27
2013-9-11,101,88,78,75,67,50,87,55,19,0.00,40.00,8,4,16,0.13
2013-9-12,106,92,79,68,57,45,68,37,13,0.00,40.00,9,2,17,0.00
2013-9-13,103,85,78,57,51,45,39,33,14,0.00,40.00,6,1,12,0.00
2013-9-14,111,92,78,54,44,-100,43,22,10,0.00,40.00,7,2,13,0.00
2013-9-15,113,96,79,54,46,38,42,21,9,0.00,40.00,7,2,13,0.00
2013-9-16,114,95,80,48,42,34,30,19,7,0.00,40.00,7,3,15,0.00
2013-9-17,110,95,83,47,41,31,24,17,7,0.00,40.00,6,4,16,0.00
2013-9-18,80,78,76,43,38,34,31,25,19,0.00,40.00,5,3,7,0.00
2013-9-19,106,90,68,61,49,37,73,30,10,0.00,40.00,5,2,9,0.00
2013-9-20,103,86,69,64,55,41,72,41,12,0.00,40.00,8,3,14,0.00
2013-9-21,102,85,74,70,56,-100,78,45,14,0.00,40.00,15,5,21,0.00
2013-9-22,92,79,68,51,40,26,48,27,11,0.00,40.00,14,9,24,0.00
2013-9-23,99,82,71,30,29,27,22,16,8,0.00,40.00,4,2,12,0.00
2013-9-24,86,80,69,57,46,35,47,31,19,0.00,40.00,7,4,13,0.00
2013-9-25,97,82,64,61,46,29,80,37,9,0.00,40.00,12,4,24,0.00
2013-9-26,86,75,65,41,31,18,35,21,13,0.00,40.00,17,10,29,0.00
2013-9-27,88,70,60,48,35,16,65,33,7,0.00,40.00,14,9,26,0.00
2013-9-28,95,68,66,22,10,-100,18,13,6,0.00,40.00,7,4,13,0.00
2013-9-29,98,88,67,31,27,23,22,12,7,0.00,40.00,5,3,14,0.00
2013-9-30,99,83,60,40,33,30,36,19,9,0.00,40.00,5,2,12,0.00
2013-10-1,89,82,76,52,49,45,39,32,22,0.00,40.00,9,6,16,0.00
2013-10-2,97,79,67,64,51,38,66,42,14,0.00,40.00,9,4,19,0.00
2013-10-3,95,79,66,61,51,32,78,45,11,0.00,40.00,8,3,18,0.00
2013-10-4,87,76,69,44,31,8,40,23,5,0.00,40.00,17,8,31,0.00
2013-10-5,85,73,67,17,16,11,14,11,6,0.00,40.00,19,13,30,0.00
2013-10-6,92,83,68,21,16,11,12,9,5,0.00,40.00,12,8,21,0.00
2013-10-7,96,89,69,18,15,14,14,7,5,0.00,40.00,4,1,7,0.00
2013-10-8,95,78,56,38,27,21,30,18,7,0.00,40.00,7,3,15,0.00
2013-10-9,79,70,63,45,40,35,49,34,22,0.00,40.00,19,11,27,0.00
2013-10-10,77,66,56,50,38,31,80,40,19,0.00,40.00,14,6,28,0.00
2013-10-11,84,66,51,37,35,28,56,34,14,0.00,40.00,6,2,11,0.00
2013-10-12,90,70,56,38,32,-100,46,29,11,0.00,40.00,7,2,10,0.00
2013-10-13,89,72,57,56,39,30,48,33,12,0.00,40.00,10,3,19,0.00
2013-10-14,89,72,57,37,29,22,47,24,9,0.00,40.00,13,4,22,0.00
2013-10-15,87,72,61,28,25,19,28,18,8,0.00,40.00,11,4,20,0.00
2013-10-17,89,82,65,23,17,13,20,10,6,0.00,40.00,5,3,11,0.00
2013-10-18,81,59,52,23,21,19,30,24,10,0.00,40.00,1,0,6,0.00
2013-10-19,68,34,68,22,-39,-100,17,8,17,0.00,40.00,1,1,6,0.00
2013-10-20,62,57,55,24,23,22,30,27,21,0.00,40.00,1,1,3,0.00
2013-10-21,88,70,53,39,32,25,48,27,10,0.00,40.00,6,2,10,0.00
2013-10-22,62,56,54,27,26,26,34,32,25,0.00,40.00,1,0,3,0.00
2013-10-23,95,88,73,24,21,18,16,10,7,0.00,40.00,4,3,10,0.00
2013-10-24,91,74,56,52,38,31,48,29,14,0.00,40.00,3,1,8,0.00
2013-10-25,92,69,53,58,41,32,64,40,12,0.00,40.00,3,1,12,0.00
2013-10-26,79,63,58,34,28,-100,39,29,17,0.00,40.00,3,0,5,0.00
2013-10-27,91,76,58,33,31,29,33,21,11,0.00,40.00,7,2,14,0.00
2013-10-28,85,72,66,48,43,-100,50,38,20,0.00,40.00,18,12,32,0.00
2013-10-29,74,66,55,44,40,33,60,40,27,0.00,40.00,15,7,24,0.00
2013-10-30,79,63,50,42,34,26,71,39,15,0.00,40.00,7,3,14,0.00
2013-10-31,80,64,50,32,26,20,43,27,11,0.00,40.00,7,2,17,0.00
2013-11-1,85,63,53,27,25,22,35,26,10,0.00,40.00,6,2,13,0.00
2013-11-2,88,61,52,31,23,-100,37,25,9,0.00,40.00,4,2,7,0.00
2013-11-3,86,64,50,30,28,21,43,28,9,0.00,40.00,7,1,14,0.00
2013-11-4,80,65,50,42,35,27,57,36,15,0.00,40.00,11,4,18,0.00
2013-11-5,76,63,57,40,24,7,47,24,7,0.00,40.00,17,11,28,0.00
2013-11-6,78,69,60,9,8,7,12,10,7,0.00,40.00,10,8,18,0.00
2013-11-7,82,67,58,21,13,8,15,12,6,0.00,40.00,12,4,19,0.00
2013-11-8,86,86,85,11,11,11,6,6,6,0.00,40.00,3,2,9,0.00
2013-11-9,87,64,48,34,23,-100,40,25,10,0.00,40.00,5,1,8,0.00
2013-11-10,86,65,52,33,28,21,38,26,9,0.00,40.00,6,1,11,0.00
2013-11-11,82,73,60,33,28,25,26,19,16,0.00,40.00,4,2,10,0.00
2013-11-13,92,83,77,37,29,16,24,15,9,0.00,40.00,8,6,14,0.00
2013-11-14,75,69,58,31,30,28,31,23,18,0.00,40.00,1,0,7,0.00
2013-11-15,87,70,63,61,49,35,79,52,16,0.00,40.00,19,8,31,0.00
2013-11-16,76,63,49,43,37,-100,73,43,21,0.00,40.00,10,3,16,0.00
2013-11-17,77,63,48,49,42,37,66,49,31,0.00,40.00,6,2,11,0.00
2013-11-18,81,66,53,48,44,40,70,47,24,0.00,40.00,6,2,10,0.00
2013-11-19,78,64,53,49,45,41,74,52,29,0.00,40.00,9,3,14,0.00
2013-11-20,79,66,54,49,43,40,64,47,25,0.00,40.00,9,2,15,0.00
2013-11-21,76,63,52,60,52,45,95,71,47,0.00,40.00,8,3,23,0.43
2013-11-22,61,57,53,56,53,48,91,85,78,0.00,40.00,12,7,21,0.56
2013-11-23,62,55,51,51,47,-100,94,79,66,0.00,40.00,11,6,15,0.01
2013-11-24,65,58,50,50,46,43,82,67,47,0.00,40.00,9,4,14,0.01
2013-11-25,71,57,48,49,44,36,87,65,29,0.00,40.00,8,2,16,0.00
2013-11-26,73,60,48,47,43,36,92,59,26,0.00,40.00,6,2,10,0.00
2013-11-27,72,61,52,44,38,27,67,47,20,0.00,40.00,11,3,18,0.00
2013-11-28,73,58,46,43,38,30,79,51,23,0.00,40.00,13,2,20,0.00
2013-11-29,74,59,49,45,40,33,78,53,22,0.00,40.00,3,1,7,0.00
2013-11-30,75,62,51,46,36,-100,73,43,20,0.00,40.00,8,3,14,0.00
2013-12-1,78,66,54,41,34,30,57,33,17,0.00,40.00,12,4,20,0.00
2013-12-2,75,58,50,40,34,29,58,42,18,0.00,40.00,3,1,6,0.00
2013-12-3,77,64,53,57,46,37,83,55,37,0.00,40.00,10,5,16,0.00
2013-12-4,66,61,51,47,33,17,57,37,18,0.00,40.00,18,11,31,0.00
2013-12-5,61,50,39,22,17,9,44,28,13,0.00,40.00,6,2,11,0.00
2013-12-6,63,47,37,30,22,13,59,40,17,0.00,40.00,9,1,14,0.00
2013-12-7,62,50,38,37,29,-100,80,50,29,0.00,40.00,13,5,21,0.00
2013-12-8,60,53,46,37,20,9,59,31,16,0.00,40.00,11,7,20,0.00
2013-12-9,54,48,43,10,1,-4,24,15,9,0.00,40.00,17,9,27,0.00
2013-12-10,60,50,43,0,-2,-3,15,12,8,0.00,40.00,14,9,24,0.00
2013-12-11,65,54,46,8,5,-1,17,13,10,0.00,40.00,15,9,23,0.00
2013-12-12,71,57,52,31,16,8,44,21,11,0.00,40.00,10,5,16,0.00
2013-12-13,69,50,40,32,30,25,69,49,19,0.00,40.00,3,1,6,0.00
2013-12-14,70,58,49,34,18,-100,52,24,12,0.00,40.00,14,7,25,0.00
2013-12-15,63,58,54,24,20,16,27,23,18,0.00,40.00,10,6,21,0.00
2013-12-16,68,60,54,25,20,18,27,22,17,0.00,40.00,7,4,11,0.00
2013-12-17,81,63,57,24,22,19,26,22,10,0.00,40.00,8,2,13,0.00
2013-12-18,79,65,55,42,29,23,55,28,14,0.00,40.00,8,3,12,0.00
2013-12-19,70,57,45,50,43,37,99,63,31,0.00,40.00,15,4,25,0.00
2013-12-20,69,57,51,48,40,29,86,56,25,0.00,40.00,15,5,25,0.17
2013-12-21,70,53,41,45,37,-100,84,60,29,0.00,40.00,7,2,12,0.00
2013-12-22,72,53,41,49,44,40,98,76,31,0.00,40.00,5,1,7,0.00
2013-12-23,72,55,45,46,32,20,87,47,14,0.00,40.00,8,3,14,0.00
2013-12-24,75,63,53,37,30,26,47,30,16,0.00,40.00,10,4,16,0.00
2013-12-25,74,61,51,34,23,14,49,26,11,0.00,40.00,14,6,23,0.00
2013-12-26,65,59,57,17,13,7,20,17,10,0.00,40.00,6,5,11,0.00
2013-12-27,65,57,48,16,12,7,26,17,12,0.00,40.00,3,1,10,0.00
2013-12-28,69,53,46,27,19,-100,41,28,15,0.00,40.00,8,2,13,0.00
2013-12-29,70,52,44,27,21,13,49,33,11,0.00,40.00,14,5,29,0.00
2013-12-30,62,54,48,17,12,7,26,19,12,0.00,40.00,2,1,5,0.00
2013-12-31,59,47,40,19,16,13,41,30,17,0.00,40.00,2,1,5,0.00
2014-1-1,73,52,41,25,16,12,39,26,10,0.00,40.00,5,1,11,0.00
2014-1-2,63,54,46,24,20,16,35,26,20,0.00,40.00,5,1,9,0.00